Location: Moscow
(55.7500°N, 37.5830°E)
Time: 12:55:54
(UTC+03:00)

S-56A Canister/Altair - Pass Details

Date: 30 November 2021
Orbit: 633 x 2499 km, 38.9° (Epoch: 17 January)

Event Time Altitude Azimuth Distance (km) Brightness Sun altitude
Rises 04:29:12 0° 242° (WSW) 3,661 - -33.0°
Reaches altitude 10° 04:33:50 10° 212° (SSW) 2,372 - -32.4°
Maximum altitude 04:35:45 12° 191° (S) 2,128 - -32.1°
Drops below altitude 10° 04:37:32 10° 169° (S) 2,164 - -31.8°
Exits shadow 04:38:37 - 158° (SSE) 2,310 10.1 -31.7°
Sets 04:41:14 0° 137° (SE) 2,946 11.0 -31.3°
